Regional Weather Roundup
Issued by NWS

Home | Current Version | Previous Version | Text Only | Print | Product List | Glossary Off
Versions: 1 2 3 4 5 6 7 8 9 10 11 12 13 14 15 16 17 18 19 20 21 22 23 24 25 26 27 28 29 30 31 32 33 34 35 36 37 38 39 40 41 42 43 44 45 46 47 48 49 50

947
ASUS45 KBOI 122010
RWRID

IDAHO REGIONAL WEATHER ROUNDUP
NATIONAL WEATHER SERVICE BOISE ID
100 PM MST FRI FEB 12 2016

NOTE: "FAIR" INDICATES FEW OR NO CLOUDS BELOW 12000 FEET
WITH NO SIGNIFICANT WEATHER AND/OR OBSTRUCTIONS TO VISIBILITY

IDZ012-014-122100-
SOUTHWEST IDAHO


CITY           SKY/WX    TMP DP  RH WIND       PRES   REMARKS
BOISE          MOSUNNY   45  32  60 E5        30.29F
CALDWELL       MOSUNNY   44  32  62 SW5       30.32F
MOUNTAIN HOME  SUNNY     48  30  50 SE13      30.29F
$$

IDZ016-017-122100-
SOUTHCENTRAL IDAHO


CITY           SKY/WX    TMP DP  RH WIND       PRES   REMARKS
BURLEY           N/A    N/A N/A N/A MISG      30.28F
JEROME         SUNNY     36  28  73 NE15      30.29F WCI  27
TWIN FALLS     SUNNY     44  35  70 E6        30.29F
$$

IDZ019>023-122100-
SOUTHEAST IDAHO


CITY           SKY/WX    TMP DP  RH WIND       PRES   REMARKS
IDAHO FALLS    CLOUDY    30  25  81 N3        30.33F
POCATELLO      CLOUDY    40  26  57 CALM      30.33F
REXBURG        CLOUDY    37  26  64 CALM      30.32F
$$

IDZ006-010-011-018-031-032-122100-
CENTRAL IDAHO MOUNTAINS


CITY           SKY/WX    TMP DP  RH WIND       PRES   REMARKS
MCCALL         PTSUNNY   35  30  82 CALM      30.22F
HAILEY         MOSUNNY   39  28  65 SE7       30.32F WCI  34
STANLEY          N/A     34  24  67 CALM      30.28F
SALMON         SUNNY     30  23  74 CALM      30.29F
CHALLIS        SUNNY     32  25  75 CALM      30.27F
$$

IDZ002-004-006-007-026-122100-
NORTHERN IDAHO


CITY           SKY/WX    TMP DP  RH WIND       PRES   REMARKS
LEWISTON       CLOUDY    51  37  58 VRB3      30.18F
LOWELL           N/A     50  42  74 N3        30.21F
COEUR D`ALENE  CLOUDY    43  39  87 NE3       30.15F
MULLAN PASS    CLOUDY    35  34  96 SW9       30.16F WCI  28
$$




USA.gov is the U.S. government's official web portal to all federal, state and local government web resources and services.